This demonstration page uses our WeatherBlox Daily Observations layout. Learn more.

Left ArrowRight Arrow

39.51506, -84.39828

Hourly Observations for March 13, 2015

Temp ( °F °C ) Dew Point ( °F °C ) Humidity (%) Winds ( mph kmh ) Pressure ( in mb ) Visibility ( mi km ) Precip ( " mm )
12:15 am 00:15 Clear 39 4 29 -1.7 67 67 NNE 3 6 30.42 1030 10 16 N/A
12:35 am 00:35 Clear 39 4 29 -1.6 67 67 NNE 5 7 30.42 1030 10 16 N/A
12:55 am 00:55 Clear 42 5.3 27 -2.6 57 57 NNE 5 7 30.39 1029 10 16 N/A
1:15 am 01:15 Clear 42 5.8 28 -2.5 56 56 N N/A 30.39 1029 10 16 N/A
1:35 am 01:35 Clear 43 6.1 27 -2.8 53 53 NNE 3 6 30.39 1029 10 16 N/A
1:55 am 01:55 Clear 43 6 27 -2.6 54 54 NE 5 7 30.39 1029 10 16 N/A
2:15 am 02:15 Clear 44 6.7 27 -3 50 50 NNE 3 6 30.36 1028 10 16 N/A
2:35 am 02:35 Clear 43 6.1 28 -2.4 55 55 NE 6 9 30.36 1028 10 16 N/A
2:55 am 02:55 Clear 43 6.2 25 -3.7 49 49 ENE 3 6 30.36 1028 10 16 N/A
3:15 am 03:15 Clear 44 6.8 25 -3.7 47 47 N N/A 30.33 1027 10 16 N/A
3:35 am 03:35 Clear 43 6 27 -2.8 54 54 NNE 3 6 30.36 1028 10 16 N/A
3:55 am 03:55 Clear 41 4.9 29 -1.9 62 62 N N/A 30.33 1027 10 16 N/A
4:15 am 04:15 Clear 40 4.6 31 -0.3 71 71 NNE 3 6 30.33 1027 10 16 N/A
4:35 am 04:35 Partly Cloudy 40 4.7 32 -0.1 71 71 ENE 3 6 30.33 1027 10 16 N/A
4:55 am 04:55 Clear 42 5.5 31 -0.4 66 66 N 5 7 30.33 1027 10 16 N/A
5:15 am 05:15 Clear 42 5.8 31 -0.8 63 63 N 5 7 30.33 1027 10 16 N/A
5:35 am 05:35 Partly Cloudy 42 5.7 31 -0.4 65 65 N 5 7 30.33 1027 10 16 N/A
5:55 am 05:55 Mostly Cloudy 42 5.8 31 -0.3 65 65 NNE 3 6 30.30 1026 10 16 N/A
6:15 am 06:15 Cloudy 42 5.8 33 0.5 69 69 N N/A 30.30 1026 10 16 N/A
6:35 am 06:35 Cloudy 42 5.5 33 0.4 70 70 N 3 6 30.30 1026 10 16 N/A
6:55 am 06:55 Cloudy 43 6.1 31 -0.8 62 62 N 3 6 30.30 1026 10 16 N/A
7:15 am 07:15 Cloudy 43 6.1 31 -0.6 63 63 N N/A 30.30 1026 10 16 N/A
7:35 am 07:35 Cloudy 43 6.1 32 -0.2 64 64 N N/A 30.30 1026 10 16 N/A
7:55 am 07:55 Partly Cloudy 42 5.8 32 0.2 68 68 N N/A 30.30 1026 10 16 N/A
8:15 am 08:15 Mostly Cloudy 43 6 34 0.9 70 70 N N/A 30.30 1026 10 16 N/A
8:35 am 08:35 Cloudy 44 6.7 33 0.3 64 64 N N/A 30.27 1025 10 16 N/A
8:55 am 08:55 Cloudy 47 8.2 34 0.9 60 60 NNE 3 6 30.27 1025 10 16 N/A
9:15 am 09:15 Mostly Cloudy 48 9 34 1.1 58 58 N N/A 30.27 1025 10 16 N/A
9:35 am 09:35 Mostly Cloudy 49 9.6 32 undefined 52 52 N N/A 30.27 1025 10 16 N/A
9:55 am 09:55 Mostly Cloudy 49 9.6 31 -0.7 49 49 NE 3 6 30.27 1025 10 16 N/A
10:15 am 10:15 Partly Cloudy 51 10.3 31 -0.6 47 47 N N/A 30.27 1025 10 16 N/A
10:35 am 10:35 Mostly Cloudy 55 12.5 32 undefined 43 43 N N/A 30.27 1025 10 16 N/A
10:55 am 10:55 Cloudy 55 12.5 32 0.1 43 43 N N/A 30.27 1025 10 16 N/A
11:15 am 11:15 Cloudy with Drizzle 55 12.5 33 0.4 44 44 W 5 7 30.27 1025 10 16 N/A
11:35 am 11:35 Cloudy with Light Rain 53 11.9 40 4.5 61 61 WNW 3 6 30.27 1025 10 16 N/A
11:55 am 11:55 Cloudy with Light Rain 52 11 43 6.1 72 72 N N/A 30.27 1025 10 16 N/A
12:15 pm 12:15 Cloudy with Rain 52 11 40 4.5 65 65 N N/A 30.27 1025 10 16 N/A
12:35 pm 12:35 Cloudy with Rain 54 12.4 43 5.9 65 65 N N/A 30.27 1025 10 16 N/A
12:55 pm 12:55 Cloudy with Rain 55 12.5 44 6.7 68 68 S 8 13 30.24 1024 10 16 N/A
1:15 pm 13:15 Cloudy with Drizzle 55 12.5 46 8 74 74 S 6 9 30.24 1024 10 16 N/A
1:35 pm 13:35 Cloudy with Drizzle 55 12.5 47 8.1 75 75 S 7 11 30.24 1024 10 16 N/A
1:55 pm 13:55 Cloudy with Drizzle 55 12.5 48 9 79 79 S 7 11 30.24 1024 10 16 N/A
2:15 pm 14:15 Cloudy with Light Rain 55 12.5 49 9.5 82 82 S 9 15 30.24 1024 7 11 N/A
2:35 pm 14:35 Cloudy with Light Rain 55 12.5 49 9.6 83 83 N N/A 30.21 1023 7 11 N/A
2:55 pm 14:55 Cloudy with Light Rain 55 12.5 50 10 85 85 N N/A 30.21 1023 5 8 N/A
3:15 pm 15:15 Cloudy with Light Rain 55 12.5 50 10 85 85 S 3 6 30.21 1023 7 11 N/A
3:35 pm 15:35 Cloudy with Rain 55 12.5 50 10 85 85 SSE 9 15 30.18 1022 10 16 N/A
3:55 pm 15:55 Cloudy with Drizzle 55 12.5 50 10 85 85 S 9 15 30.18 1022 10 16 N/A
4:15 pm 16:15 Cloudy with Drizzle 55 12.5 50 9.8 84 84 S 10 17 30.18 1022 10 16 N/A
4:35 pm 16:35 Cloudy with Light Rain 55 12.5 50 10 85 85 S 10 17 30.18 1022 10 16 N/A
4:55 pm 16:55 Cloudy with Light Rain 55 12.5 50 10 85 85 N N/A 30.18 1022 5 8 N/A
5:15 pm 17:15 Cloudy with Light Rain 55 12.5 50 10.1 85 85 S 3 6 30.18 1022 10 16 N/A
5:35 pm 17:35 Cloudy with Drizzle 55 12.5 50 10.1 85 85 S 6 9 30.15 1021 10 16 N/A
5:55 pm 17:55 Cloudy with Rain 55 12.5 50 10 85 85 S 3 6 30.15 1021 10 16 N/A
6:15 pm 18:15 Cloudy with Light Rain 55 12.5 50 10 85 85 S 12 19 30.15 1021 10 16 N/A
6:35 pm 18:35 Cloudy with Light Rain 55 12.5 50 10.1 85 85 S 8 13 30.15 1021 10 16 N/A
6:55 pm 18:55 Cloudy with Light Rain 55 12.5 50 10.2 86 86 N N/A 30.15 1021 10 16 N/A
7:15 pm 19:15 Cloudy with Drizzle 55 12.5 50 10.2 86 86 S 3 6 30.15 1021 10 16 N/A
7:35 pm 19:35 Cloudy with Drizzle 55 12.5 50 10.2 86 86 N N/A 30.15 1021 10 16 N/A
7:55 pm 19:55 Cloudy with Drizzle 55 12.5 50 10.2 86 86 N N/A 30.15 1021 10 16 N/A
8:15 pm 20:15 Cloudy with Drizzle 55 12.5 50 10.2 86 86 S 8 13 30.15 1021 10 16 N/A
8:35 pm 20:35 Cloudy with Light Rain 54 12.4 50 10.2 87 87 S 7 11 30.12 1020 5 8 N/A
8:55 pm 20:55 Cloudy with Rain 55 12.5 51 10.3 87 87 N N/A 30.12 1020 10 16 N/A
9:15 pm 21:15 Cloudy with Light Rain 55 12.5 51 10.3 87 87 S 5 7 30.12 1020 10 16 N/A
9:35 pm 21:35 Cloudy with Light Rain 54 12 50 10 88 88 S 8 13 30.12 1020 7 11 N/A
9:55 pm 21:55 Cloudy with Drizzle 52 11.2 49 9.2 88 88 S 7 11 30.12 1020 7 11 N/A
10:15 pm 22:15 Cloudy with Heavy Rain 52 11 48 9 88 88 N N/A 30.12 1020 7 11 N/A
10:35 pm 22:35 Cloudy with Drizzle 52 11 48 9 88 88 N N/A 30.09 1019 7 11 N/A
10:55 pm 22:55 Cloudy with Drizzle 52 11 48 9.1 88 88 S 6 9 30.09 1019 10 16 N/A
11:15 pm 23:15 Cloudy with Light Rain 52 11 48 9.1 88 88 S 7 11 30.09 1019 7 11 N/A
11:35 pm 23:35 Cloudy with Heavy Rain 52 11 48 9.1 88 88 S 7 11 30.09 1019 5 8 N/A
11:55 pm 23:55 Cloudy with Drizzle 52 11 48 9.1 88 88 S 7 11 30.09 1019 7 11 N/A

Powered by AerisWeather